Skip Page Navigation
NASA JPL Caltech
NASA Logo - Jet Propulsion Laboratory + View the NASA Portal
+ Center for Near-Earth Object Studies
JPL Home Earth Solar System Stars & Galaxies Technology
JPL Solar System Dynamics
BODIES ORBITS EPHEMERIDES TOOLS PHYSICAL DATA DISCOVERY FAQ SITE MAP
IMPORTANT: The SSD Announcement email list is now available. Major changes are coming in the near future, including possible hostname and/or URL changes. To be notified of such changes, subscribe to this email list.

Please visit this page for more details.


JPL Small-Body Database Browser
Search: [ help ]  
434449 (2005 OD29)
Classification: Main-belt Asteroid          SPK-ID: 2434449
Ephemeris | Orbit Diagram | Orbital Elements | Mission Design | Physical Parameters | Discovery Circumstances | Close-Approach Data ]

[ show orbit diagram ]
Orbital Elements at Epoch 2458600.5 (2019-Apr-27.0) TDB
Reference: JPL 8 (heliocentric ecliptic J2000)
 Element Value Uncertainty (1-sigma)   Units 
e .3102379628792145 1.4287e-07  
a 3.070570066332754 3.726e-08 au
q 2.117962664075786 4.2677e-07 au
i 8.730070250513764 6.9703e-06 deg
node 118.7405871933142 8.5617e-05 deg
peri 233.6145409996506 8.8951e-05 deg
M 188.0295819924881 1.7059e-05 deg
tp 2459539.311045879894
(2021-Nov-20.81104588)
0.00010194 TDB
period 1965.291359017333
5.38
3.5772e-05
9.794e-08
d
yr
n .1831789461385532 3.3342e-09 deg/d
Q 4.023177468589722 4.8819e-08 au
  Orbit Determination Parameters
   # obs. used (total)      94  
   data-arc span      5823 days (15.94 yr)  
   first obs. used      2002-02-06  
   last obs. used      2018-01-16  
   planetary ephem.      DE431  
   SB-pert. ephem.      SB431-N16  
   condition code      0  
   norm. resid. RMS      .59137  
   source      ORB  
   producer      Otto Matic  
   solution date      2019-Jul-14 09:29:14  

Additional Information
 Earth MOID = 1.12483 au 
 Jupiter MOID = 1.47726 au 
 T_jup = 3.138 
[ show covariance matrix ]

Ephemeris | Orbit Diagram | Orbital Elements | Mission Design | Physical Parameters | Discovery Circumstances | Close-Approach Data ]

Physical Parameter Table
Parameter Symbol Value Units Sigma Reference Notes
absolute magnitude H 16.5   n/a MPO434584  

434449 (2005 OD29)          Discovered 2005-Jul-30 by NEAT at Palomar
Reference: Last Updated: 2015-06-04

[ show close-approach data ]
Ephemeris | Orbit Diagram | Orbital Elements | Mission Design | Physical Parameters | Discovery Circumstances | Close-Approach Data ]
ABOUT SSD CREDITS/AWARDS PRIVACY/COPYRIGHT GLOSSARY LINKS
FirstGov
(server date/time)  
NASA Home Page
Site Manager:   Ryan S. Park
Webmaster  Alan B. Chamberlin